Weather History for KARM - January, 2014

Change the Weather History Date:

Saturday, January 11, 2014

  Actual Average (KPSX) Record (KPSX)
Temperature  
Mean Temperature 58 °F -  
Max Temperature 71 °F 59 °F 78 °F (1950)
Min Temperature 44 °F 41 °F 15 °F (1982)
Degree Days  
Heating Degree Days 7    
Growing Degree Days 8 (Base 50)    
Moisture  
Dew Point 48 °F    
Average Humidity 72    
Maximum Humidity 99    
Minimum Humidity 29    
Precipitation  
Precipitation 0.00 in - - ()
Sea Level Pressure  
Sea Level Pressure 30.05 in    
Wind  
Wind Speed 6 mph (NW)    
Max Wind Speed 17 mph    
Max Gust Speed 22 mph    
Visibility 7 miles    
Events Fog    
Averages and records for this station are not official NWS values.
T = Trace of Precipitation, MM = Missing Value Source: NWS Daily Summary

Daily Weather History Graph

Daily Weather History Graph

Search for Another Location

Airport or City:

Trip Planner

Search our weather history database for the weather conditions in past years. The results will help you decide how hot, cold, wet, or windy it might be!

Date:

Astronomy

Jan. 11, 2014 Rise Set
Actual Time 7:20 AM CST 5:45 PM CST
Civil Twilight 6:54 AM CST 6:11 PM CST
Nautical Twilight 6:24 AM CST 6:40 PM CST
Astronomical Twilight 5:56 AM CST 7:09 PM CST
Moon 2:27 PM CST (1/11) 3:29 AM CST (1/11)
Length of Visible Light 11h 16m
Length of Day
10h 25m
Waxing Gibbous, 83% of the Moon is Illuminated
Jan 11
Waxing Gibbous
Jan 15
Full
Jan 23
Last Quarter
Jan 30
New
Feb 6
First Quarter

Hourly Weather History & Observations

Time (CST) Temp. Dew Point Humidity Pressure Visibility Wind Dir Wind Speed Gust Speed Precip Events Conditions
12:15 AM 63.7 °F 63.0 °F 97% 29.89 in 3.0 mi SSW 6.9 mph - N/A   Overcast
12:35 AM 63.0 °F 62.4 °F 98% 29.89 in 2.0 mi SSW 6.9 mph - N/A   Overcast
12:55 AM 62.6 °F 61.7 °F 97% 29.88 in 0.5 mi SSW 6.9 mph - N/A Fog Fog
1:15 AM 62.1 °F 61.3 °F 97% 29.88 in 0.2 mi SSW 8.1 mph - N/A Fog Fog
1:35 AM 61.7 °F 60.8 °F 97% 29.88 in 0.2 mi SSW 6.9 mph - N/A Fog Fog
1:55 AM 61.2 °F 60.4 °F 97% 29.89 in 0.2 mi SSW 5.8 mph - N/A Fog Fog
2:15 AM 60.8 °F 60.3 °F 98% 29.89 in 0.2 mi South 4.6 mph - N/A Fog Fog
2:35 AM 60.3 °F 59.9 °F 99% 29.89 in 0.2 mi South 6.9 mph - N/A Fog Fog
2:55 AM 59.9 °F 59.2 °F 97% 29.90 in 0.2 mi South 5.8 mph - N/A   Light Drizzle
3:15 AM 59.5 °F 59.0 °F 98% 29.90 in 0.5 mi SSW 4.6 mph - N/A Fog Fog
3:35 AM 59.0 °F 58.5 °F 98% 29.90 in 0.5 mi SSW 5.8 mph - N/A Fog Fog
3:55 AM 58.6 °F 58.1 °F 98% 29.91 in 0.5 mi SW 3.5 mph - N/A Fog Fog
4:15 AM 58.1 °F 57.4 °F 97% 29.92 in 0.5 mi SW 5.8 mph - N/A Fog Fog
4:35 AM 57.4 °F 56.8 °F 98% 29.92 in 0.5 mi WSW 5.8 mph - N/A Fog Fog
4:55 AM 57.0 °F 56.3 °F 97% 29.93 in 0.2 mi West 3.5 mph - N/A Fog Fog
5:15 AM 56.3 °F 55.6 °F 97% 29.93 in 0.2 mi Calm Calm - N/A Fog Fog
5:35 AM 55.6 °F 55.4 °F 99% 29.95 in 0.5 mi Calm Calm - N/A Fog Fog
5:55 AM 55.0 °F 54.5 °F 98% 29.96 in 0.5 mi West 3.5 mph - N/A Fog Fog
6:15 AM 54.7 °F 54.3 °F 99% 29.98 in 0.5 mi West 3.5 mph - N/A Fog Fog
6:35 AM 54.7 °F 54.3 °F 99% 29.98 in 1.5 mi West 4.6 mph - N/A   Mist
6:55 AM 54.9 °F 54.5 °F 99% 29.99 in 7.0 mi West 5.8 mph - N/A   Clear
7:15 AM 54.9 °F 54.5 °F 99% 29.99 in 7.0 mi WNW 5.8 mph - N/A   Clear
7:35 AM 54.5 °F 54.0 °F 98% 30.01 in 7.0 mi WNW 6.9 mph - N/A   Clear
7:55 AM 54.5 °F 54.3 °F 99% 30.03 in 7.0 mi WNW 8.1 mph - N/A   Clear
8:15 AM 55.2 °F 54.9 °F 99% 30.04 in 10.0 mi WNW 6.9 mph - N/A   Clear
8:35 AM 57.7 °F 54.5 °F 89% 30.06 in 10.0 mi NW 8.1 mph - N/A   Clear
8:55 AM 59.0 °F 53.2 °F 81% 30.07 in 10.0 mi NW 9.2 mph - N/A   Clear
9:15 AM 59.9 °F 52.9 °F 78% 30.08 in 10.0 mi NNW 10.4 mph - N/A   Clear
9:35 AM 61.2 °F 52.2 °F 72% 30.09 in 10.0 mi NNW 11.5 mph - N/A   Clear
9:55 AM 62.8 °F 51.4 °F 66% 30.10 in 10.0 mi North 9.2 mph - N/A   Clear
10:15 AM 64.2 °F 48.4 °F 56% 30.11 in 10.0 mi North 9.2 mph - N/A   Clear
10:35 AM 65.3 °F 48.2 °F 54% 30.11 in 10.0 mi North 9.2 mph - N/A   Clear
10:55 AM 66.9 °F 47.8 °F 50% 30.11 in 10.0 mi North 11.5 mph - N/A   Clear
11:15 AM 67.3 °F 46.8 °F 48% 30.11 in 10.0 mi North 12.7 mph 18.4 mph N/A   Clear
11:35 AM 68.5 °F 41.0 °F 37% 30.11 in 10.0 mi North 15.0 mph 18.4 mph N/A   Clear
11:55 AM 69.8 °F 37.8 °F 31% 30.11 in 10.0 mi North 16.1 mph 21.9 mph N/A   Clear
12:15 PM 70.2 °F 36.1 °F 29% 30.10 in 10.0 mi North 16.1 mph 21.9 mph N/A   Clear
12:35 PM 70.0 °F 36.5 °F 29% 30.10 in 10.0 mi NNE 12.7 mph - N/A   Clear
12:55 PM 70.3 °F 37.2 °F 30% 30.09 in 10.0 mi North 17.3 mph - N/A   Clear
1:15 PM 70.2 °F 38.5 °F 31% 30.08 in 10.0 mi North 13.8 mph - N/A   Clear
1:35 PM 70.3 °F 40.6 °F 34% 30.07 in 10.0 mi North 11.5 mph - N/A   Clear
1:55 PM 70.9 °F 39.7 °F 32% 30.07 in 10.0 mi North 15.0 mph 18.4 mph N/A   Clear
2:15 PM 70.9 °F 41.7 °F 35% 30.07 in 10.0 mi North 10.4 mph - N/A   Clear
2:35 PM 71.6 °F 39.0 °F 31% 30.07 in 10.0 mi North 10.4 mph - N/A   Clear
2:55 PM 70.9 °F 39.0 °F 31% 30.08 in 10.0 mi NNW 10.4 mph - N/A   Clear
3:15 PM 70.7 °F 39.6 °F 32% 30.08 in 10.0 mi NNW 10.4 mph - N/A   Clear
3:35 PM 70.7 °F 39.4 °F 32% 30.08 in 10.0 mi North 9.2 mph - N/A   Clear
3:55 PM 70.5 °F 38.8 °F 32% 30.08 in 10.0 mi North 9.2 mph - N/A   Clear
4:15 PM 70.0 °F 37.4 °F 30% 30.08 in 10.0 mi North 9.2 mph - N/A   Clear
4:35 PM 69.3 °F 38.1 °F 32% 30.08 in 10.0 mi North 5.8 mph - N/A   Clear
4:55 PM 68.4 °F 39.0 °F 34% 30.09 in 10.0 mi North 6.9 mph - N/A   Clear
5:15 PM 66.4 °F 39.0 °F 37% 30.09 in 10.0 mi North 4.6 mph - N/A   Clear
5:35 PM 64.2 °F 39.6 °F 40% 30.09 in 10.0 mi North 4.6 mph - N/A   Clear
5:55 PM 61.7 °F 39.9 °F 45% 30.10 in 10.0 mi North 3.5 mph - N/A   Clear
6:15 PM 59.9 °F 40.3 °F 48% 30.11 in 10.0 mi Calm Calm - N/A   Clear
6:35 PM 59.4 °F 46.8 °F 63% 30.11 in 10.0 mi Calm Calm - N/A   Clear
6:55 PM 56.8 °F 46.8 °F 69% 30.11 in 10.0 mi Calm Calm - N/A   Clear
7:15 PM 54.1 °F 46.9 °F 77% 30.12 in 10.0 mi Calm Calm - N/A   Clear
7:35 PM 53.8 °F 46.8 °F 77% 30.14 in 10.0 mi Calm Calm - N/A   Clear
7:55 PM 53.4 °F 45.3 °F 74% 30.14 in 10.0 mi Calm Calm - N/A   Clear
8:15 PM 50.9 °F 46.0 °F 83% 30.15 in 10.0 mi Calm Calm - N/A   Clear
8:35 PM 50.2 °F 45.0 °F 82% 30.16 in 10.0 mi Calm Calm - N/A   Clear
8:55 PM 50.0 °F 45.3 °F 84% 30.16 in 10.0 mi Calm Calm - N/A   Clear
9:15 PM 49.5 °F 44.2 °F 82% 30.16 in 10.0 mi Calm Calm - N/A   Clear
9:35 PM 48.9 °F 44.6 °F 85% 30.16 in 10.0 mi Calm Calm - N/A   Clear
9:55 PM 47.1 °F 43.0 °F 86% 30.16 in 10.0 mi Calm Calm - N/A   Clear
10:15 PM 46.2 °F 43.0 °F 88% 30.16 in 10.0 mi Calm Calm - N/A   Clear
10:35 PM 45.9 °F 42.8 °F 89% 30.16 in 10.0 mi Calm Calm - N/A   Clear
10:55 PM 46.4 °F 43.3 °F 89% 30.15 in 10.0 mi Calm Calm - N/A   Clear
11:15 PM 46.0 °F 42.4 °F 87% 30.15 in 10.0 mi Calm Calm - N/A   Clear
11:35 PM 45.0 °F 42.8 °F 92% 30.14 in 10.0 mi Calm Calm - N/A   Clear
11:55 PM 44.8 °F 43.0 °F 93% 30.14 in 10.0 mi Calm Calm - N/A   Clear